Marshall, TX

7:46 AM CDT on October 20, 2017 (GMT -0500)
Harrison County

Weather History for KASL - October, 2013

Change the Weather History Date:

Tuesday, October 22, 2013

  Actual Average (KGGG) Record (KGGG)
Temperature  
Mean Temperature 60 °F -  
Max Temperature 70 °F 74 °F 95 °F (1934)
Min Temperature 50 °F 53 °F 32 °F (1937)
Degree Days  
Heating Degree Days 5    
Growing Degree Days 10 (Base 50)    
Moisture  
Dew Point 52 °F    
Average Humidity 78    
Maximum Humidity 92    
Minimum Humidity 36    
Precipitation  
Precipitation 0.01 in - - ()
Sea Level Pressure  
Sea Level Pressure 30.08 in    
Wind  
Wind Speed 6 mph (NNW)    
Max Wind Speed 12 mph    
Max Gust Speed 17 mph    
Visibility 10 miles    
Events      
Averages and records for this station are not official NWS values.
T = Trace of Precipitation, MM = Missing Value Source: NWS Daily Summary

Daily Weather History Graph

Daily Weather History Graph

Search for Another Location

Airport or City:

Trip Planner

Search our weather history database for the weather conditions in past years. The results will help you decide how hot, cold, wet, or windy it might be!

Date:

Astronomy

Oct. 22, 2013 Rise Set
Actual Time 7:26 AM CDT 6:36 PM CDT
Civil Twilight 7:01 AM CDT 7:01 PM CDT
Nautical Twilight 6:32 AM CDT 7:29 PM CDT
Astronomical Twilight 6:04 AM CDT 7:58 PM CDT
Moon 9:25 PM CDT (10/22) 10:47 AM CDT (10/22)
Length of Visible Light 11h 59m
Length of Day
11h 09m
Waning Gibbous, 86% of the Moon is Illuminated
Oct 22
Waning Gibbous
Oct 26
Last Quarter
Nov 3
New
Nov 9
First Quarter
Nov 17
Full

Hourly Weather History & Observations

Time (CDT) Temp. Dew Point Humidity Pressure Visibility Wind Dir Wind Speed Gust Speed Precip Events Conditions
12:15 AM 60.8 °F 58.1 °F 91% 30.05 in 7.0 mi NNW 9.2 mph - N/A   Overcast
12:35 AM 60.8 °F 58.1 °F 91% 30.05 in 7.0 mi North 8.1 mph - 0.01 in   Overcast
12:55 AM 60.6 °F 57.7 °F 90% 30.06 in 7.0 mi North 6.9 mph - 0.01 in   Overcast
1:15 AM 59.4 °F 56.5 °F 90% 30.06 in 10.0 mi North 8.1 mph - N/A   Overcast
1:35 AM 59.0 °F 55.9 °F 90% 30.06 in 10.0 mi North 6.9 mph - N/A   Overcast
1:55 AM 59.0 °F 55.9 °F 90% 30.06 in 10.0 mi North 8.1 mph - N/A   Overcast
2:15 AM 58.5 °F 55.6 °F 90% 30.06 in 10.0 mi North 5.8 mph - N/A   Overcast
2:35 AM 58.1 °F 55.4 °F 91% 30.06 in 10.0 mi North 5.8 mph - N/A   Overcast
2:55 AM 58.1 °F 55.4 °F 91% 30.07 in 10.0 mi North 5.8 mph - N/A   Overcast
3:15 AM 58.1 °F 55.4 °F 91% 30.07 in 10.0 mi North 9.2 mph - N/A   Overcast
3:35 AM 58.1 °F 55.4 °F 91% 30.06 in 10.0 mi North 4.6 mph - N/A   Overcast
3:55 AM 58.1 °F 55.4 °F 91% 30.06 in 10.0 mi North 5.8 mph - N/A   Overcast
4:15 AM 58.1 °F 55.0 °F 90% 30.06 in 10.0 mi North 4.6 mph - N/A   Overcast
4:35 AM 58.1 °F 55.4 °F 91% 30.06 in 10.0 mi North 4.6 mph - N/A   Overcast
4:55 AM 58.1 °F 55.4 °F 91% 30.07 in 10.0 mi North 4.6 mph - N/A   Overcast
5:15 AM 58.1 °F 55.2 °F 90% 30.07 in 10.0 mi North 5.8 mph - N/A   Overcast
5:35 AM 58.1 °F 54.7 °F 88% 30.08 in 10.0 mi North 5.8 mph - N/A   Overcast
5:55 AM 57.9 °F 54.7 °F 89% 30.09 in 10.0 mi NNW 6.9 mph - N/A   Overcast
6:15 AM 56.8 °F 53.6 °F 89% 30.09 in 10.0 mi North 6.9 mph - N/A   Overcast
6:35 AM 56.8 °F 53.6 °F 89% 30.10 in 10.0 mi North 6.9 mph - N/A   Overcast
6:55 AM 56.8 °F 53.6 °F 89% 30.10 in 10.0 mi North 4.6 mph - N/A   Overcast
7:15 AM 56.8 °F 53.8 °F 89% 30.11 in 10.0 mi North 3.5 mph - N/A   Overcast
7:35 AM 56.5 °F 53.2 °F 89% 30.11 in 10.0 mi North 3.5 mph - N/A   Overcast
7:55 AM 56.3 °F 53.1 °F 89% 30.11 in 10.0 mi North 3.5 mph - N/A   Overcast
8:15 AM 56.5 °F 53.4 °F 89% 30.11 in 10.0 mi Calm Calm - N/A   Overcast
8:35 AM 56.8 °F 53.6 °F 89% 30.13 in 10.0 mi North 4.6 mph - N/A   Overcast
8:55 AM 56.3 °F 53.1 °F 89% 30.13 in 10.0 mi North 5.8 mph - N/A   Overcast
9:15 AM 56.8 °F 53.6 °F 89% 30.14 in 10.0 mi North 3.5 mph - N/A   Overcast
9:35 AM 56.8 °F 53.2 °F 88% 30.14 in 10.0 mi North 5.8 mph - N/A   Overcast
9:55 AM 58.1 °F 53.8 °F 86% 30.15 in 10.0 mi NNW 6.9 mph - N/A   Overcast
10:15 AM 58.1 °F 52.7 °F 82% 30.14 in 10.0 mi North 4.6 mph - N/A   Overcast
10:35 AM 61.0 °F 52.9 °F 75% 30.14 in 10.0 mi North 9.2 mph - N/A   Mostly Cloudy
10:55 AM 59.7 °F 51.6 °F 75% 30.14 in 10.0 mi North 6.9 mph - N/A   Scattered Clouds
11:15 AM 60.8 °F 51.6 °F 72% 30.14 in 10.0 mi North 5.8 mph - N/A   Scattered Clouds
11:35 AM 63.1 °F 53.2 °F 70% 30.14 in 10.0 mi NW 5.8 mph - N/A   Scattered Clouds
11:55 AM 64.8 °F 53.2 °F 66% 30.14 in 10.0 mi NNE 4.6 mph - N/A   Scattered Clouds
12:15 PM 65.7 °F 53.2 °F 64% 30.13 in 10.0 mi NW 4.6 mph - N/A   Clear
12:35 PM 65.7 °F 52.9 °F 63% 30.12 in 10.0 mi NNW 11.5 mph - N/A   Clear
12:55 PM 65.7 °F 49.8 °F 57% 30.12 in 10.0 mi NW 6.9 mph - N/A   Clear
1:15 PM 65.7 °F 48.2 °F 53% 30.11 in 10.0 mi NW 9.2 mph - N/A   Clear
1:35 PM 65.7 °F 45.7 °F 48% 30.10 in 10.0 mi NNW 11.5 mph 17.3 mph N/A   Clear
1:55 PM 66.0 °F 45.1 °F 47% 30.09 in 10.0 mi North 10.4 mph - N/A   Clear
2:15 PM 66.7 °F 46.2 °F 48% 30.08 in 10.0 mi North 5.8 mph - N/A   Clear
2:35 PM - - N/A% - - North - - N/A   Unknown
2:55 PM - - N/A% - - North - - N/A   Unknown
3:15 PM - - N/A% - - North - - N/A   Unknown
3:35 PM 70.7 °F 46.4 °F 42% 30.07 in 10.0 mi WNW 6.9 mph - N/A   Clear
3:55 PM - - N/A% - - North - - N/A   Unknown
4:15 PM 70.7 °F 45.9 °F 41% 30.06 in 10.0 mi WNW 4.6 mph - N/A   Clear
4:35 PM 70.7 °F 42.4 °F 36% 30.05 in 10.0 mi WNW 4.6 mph - N/A   Clear
4:55 PM 70.7 °F 42.8 °F 36% 30.04 in 10.0 mi NW 3.5 mph - N/A   Clear
5:15 PM 70.7 °F 42.4 °F 36% 30.04 in 10.0 mi WSW 3.5 mph - N/A   Clear
5:35 PM 70.7 °F 44.2 °F 39% 30.04 in 10.0 mi WSW 3.5 mph - N/A   Clear
5:55 PM 68.2 °F 44.4 °F 42% 30.04 in 10.0 mi Calm Calm - N/A   Clear
6:15 PM 67.1 °F 46.4 °F 47% 30.04 in 10.0 mi Calm Calm - N/A   Clear
6:35 PM 64.8 °F 52.3 °F 64% 30.04 in 10.0 mi Calm Calm - N/A   Clear
6:55 PM 58.6 °F 52.5 °F 80% 30.05 in 10.0 mi Calm Calm - N/A   Clear
7:15 PM 56.8 °F 52.7 °F 86% 30.05 in 10.0 mi Calm Calm - N/A   Clear
7:35 PM 55.6 °F 51.6 °F 87% 30.05 in 10.0 mi Calm Calm - N/A   Clear
7:55 PM 55.6 °F 52.2 °F 88% 30.06 in 10.0 mi Calm Calm - N/A   Clear
8:15 PM 54.1 °F 50.9 °F 89% 30.06 in 10.0 mi Calm Calm - N/A   Clear
8:35 PM 53.2 °F 50.4 °F 90% 30.06 in 10.0 mi Calm Calm - N/A   Clear
8:55 PM 53.1 °F 50.2 °F 90% 30.06 in 10.0 mi Calm Calm - N/A   Clear
9:35 PM 53.1 °F 50.4 °F 91% 30.06 in 10.0 mi Calm Calm - N/A   Clear
10:15 PM 51.8 °F 49.3 °F 91% 30.07 in 10.0 mi Calm Calm - N/A   Clear
10:35 PM 51.8 °F 49.3 °F 91% 30.07 in 10.0 mi Calm Calm - N/A   Clear
10:55 PM 50.5 °F 48.2 °F 92% 30.08 in 10.0 mi Calm Calm - N/A   Clear
11:15 PM 50.5 °F 48.2 °F 92% 30.08 in 10.0 mi Calm Calm - N/A   Clear
11:35 PM 50.5 °F 48.2 °F 92% 30.08 in 10.0 mi Calm Calm - N/A   Clear
11:55 PM 50.5 °F 48.2 °F 92% 30.08 in 10.0 mi Calm Calm - N/A   Clear